EUTELSAT 7C

Last updated on Jan. 20, 2021, 6:22 a.m. UTC

1 44334U 19034B   21019.62016175  .00000052  00000-0  00000-0 0  9993
2 44334   0.0098  61.7103 0003157 221.1416  66.5807  1.00271523  6300
UTC
Height (km)
Latitude
Longitude
Inclination
Orbital Period
UTC large
Height (km)
Speed (km/s)
/
Latitude / Longitude
Inclination (degrees)
Orbital Period (minutes)
Azimuth
Elevation
Range (km)
Doppler Factor
iOS Compass Heading
iOS Angle

Next 30 passes for location: Hong Kong

Rise time Rise Azimuth (degrees) Set time Set Azimuth (degrees) Duration Max altitude (degrees)

No matching passes for this satellites